TimeMST,TemperatureF,Dew PointF,Humidity,Sea Level PressureIn,VisibilityMPH,Wind Direction,Wind SpeedMPH,Gust SpeedMPH,PrecipitationIn,Events,Conditions,WindDirDegrees,DateUTC
12:15 AM,10.4,-2.2,57,30.40,10.0,Calm,Calm,-,N/A,,Clear,0,2012-11-27 07:15:00
12:35 AM,12.2,3.2,67,30.39,10.0,NNE,3.5,-,N/A,,Clear,20,2012-11-27 07:35:00
12:55 AM,12.2,-4.0,48,30.39,10.0,Calm,Calm,-,N/A,,Clear,0,2012-11-27 07:55:00
1:15 AM,12.2,1.4,62,30.39,10.0,Calm,Calm,-,N/A,,Clear,0,2012-11-27 08:15:00
1:35 AM,12.2,-5.8,45,30.40,10.0,Calm,Calm,-,N/A,,Clear,0,2012-11-27 08:35:00
1:55 AM,10.4,-2.2,57,30.40,10.0,NE,5.8,-,N/A,,Clear,50,2012-11-27 08:55:00
2:15 AM,10.4,-2.2,57,30.41,10.0,NE,3.5,-,N/A,,Clear,40,2012-11-27 09:15:00
2:35 AM,8.6,-2.2,62,30.41,10.0,NE,4.6,-,N/A,,Clear,50,2012-11-27 09:35:00
2:55 AM,10.4,-0.4,62,30.41,10.0,NNE,4.6,-,N/A,,Clear,30,2012-11-27 09:55:00
3:15 AM,10.4,-4.0,52,30.41,10.0,NE,3.5,-,N/A,,Clear,50,2012-11-27 10:15:00
3:35 AM,8.6,-2.2,62,30.41,10.0,North,3.5,-,N/A,,Clear,10,2012-11-27 10:35:00
3:55 AM,8.6,-0.4,67,30.41,10.0,Calm,Calm,-,N/A,,Clear,0,2012-11-27 10:55:00
4:15 AM,8.6,-0.4,67,30.42,10.0,Calm,Calm,-,N/A,,Clear,0,2012-11-27 11:15:00
4:35 AM,6.8,-2.2,67,30.42,10.0,Calm,Calm,-,N/A,,Clear,0,2012-11-27 11:35:00
4:55 AM,5.0,-5.8,61,30.43,10.0,Calm,Calm,-,N/A,,Clear,0,2012-11-27 11:55:00
5:35 AM,6.8,-2.2,67,30.44,10.0,Calm,Calm,-,N/A,,Clear,0,2012-11-27 12:35:00
5:55 AM,6.8,-2.2,67,30.44,10.0,Calm,Calm,-,N/A,,Clear,0,2012-11-27 12:55:00
6:15 AM,3.2,-5.8,66,30.45,10.0,Calm,Calm,-,N/A,,Clear,0,2012-11-27 13:15:00
6:35 AM,3.2,-2.2,78,30.46,10.0,Calm,Calm,-,N/A,,Clear,0,2012-11-27 13:35:00
6:55 AM,3.2,-2.2,78,30.46,10.0,Calm,Calm,-,N/A,,Clear,0,2012-11-27 13:55:00
7:15 AM,3.2,-2.2,78,30.47,10.0,Calm,Calm,-,N/A,,Clear,0,2012-11-27 14:15:00
7:35 AM,3.2,-2.2,78,30.48,10.0,Calm,Calm,-,N/A,,Clear,0,2012-11-27 14:35:00
8:15 AM,6.8,-0.4,72,30.50,10.0,East,3.5,-,N/A,,Clear,100,2012-11-27 15:15:00
8:35 AM,8.6,1.4,73,30.51,10.0,Calm,Calm,-,N/A,,Clear,0,2012-11-27 15:35:00
8:55 AM,12.2,3.2,67,30.51,10.0,Calm,Calm,-,N/A,,Clear,0,2012-11-27 15:55:00
9:15 AM,12.2,-0.4,57,30.51,10.0,Calm,Calm,-,N/A,,Clear,0,2012-11-27 16:15:00
9:55 AM,19.4,1.4,46,30.50,10.0,Calm,Calm,-,N/A,,Clear,0,2012-11-27 16:55:00
10:15 AM,21.2,1.4,42,30.50,10.0,Calm,Calm,-,N/A,,Clear,0,2012-11-27 17:15:00
10:35 AM,24.8,5.0,43,30.49,10.0,Calm,Calm,-,N/A,,Clear,0,2012-11-27 17:35:00
10:55 AM,26.6,3.2,37,30.48,10.0,Calm,Calm,-,N/A,,Clear,0,2012-11-27 17:55:00
11:35 AM,30.2,5.0,34,30.46,10.0,Calm,Calm,-,N/A,,Clear,0,2012-11-27 18:35:00
11:55 AM,32.0,5.0,32,30.44,10.0,Calm,Calm,-,N/A,,Clear,0,2012-11-27 18:55:00
12:15 PM,33.8,3.2,28,30.43,10.0,Calm,Calm,-,N/A,,Clear,0,2012-11-27 19:15:00
12:55 PM,37.4,1.4,22,30.40,10.0,Calm,Calm,-,N/A,,Clear,0,2012-11-27 19:55:00
1:15 PM,39.2,1.4,21,30.39,10.0,East,4.6,-,N/A,,Clear,80,2012-11-27 20:15:00
1:35 PM,39.2,1.4,21,30.38,10.0,Calm,Calm,-,N/A,,Clear,0,2012-11-27 20:35:00
2:35 PM,44.6,5.0,20,30.36,10.0,Calm,Calm,-,N/A,,Clear,0,2012-11-27 21:35:00
2:55 PM,46.4,3.2,17,30.36,10.0,Calm,Calm,-,N/A,,Clear,0,2012-11-27 21:55:00
3:15 PM,44.6,3.2,18,30.35,10.0,Calm,Calm,-,N/A,,Clear,0,2012-11-27 22:15:00
3:35 PM,46.4,5.0,18,30.35,10.0,Calm,Calm,-,N/A,,Clear,0,2012-11-27 22:35:00
3:55 PM,46.4,5.0,18,30.35,10.0,Calm,Calm,-,N/A,,Clear,0,2012-11-27 22:55:00
4:15 PM,46.4,3.2,17,30.36,10.0,North,3.5,-,N/A,,Clear,350,2012-11-27 23:15:00
5:15 PM,37.4,-0.4,20,30.36,10.0,NNW,8.1,-,N/A,,Clear,340,2012-11-28 00:15:00
5:35 PM,35.6,-0.4,22,30.37,10.0,NNW,8.1,-,N/A,,Clear,340,2012-11-28 00:35:00
5:55 PM,33.8,-0.4,23,30.37,10.0,North,5.8,-,N/A,,Clear,350,2012-11-28 00:55:00
6:15 PM,32.0,-0.4,25,30.38,10.0,NNW,3.5,-,N/A,,Clear,340,2012-11-28 01:15:00
6:55 PM,28.4,3.2,34,30.39,10.0,NE,4.6,-,N/A,,Clear,50,2012-11-28 01:55:00
7:35 PM,23.0,1.4,39,30.41,10.0,Calm,Calm,-,N/A,,Clear,0,2012-11-28 02:35:00
7:55 PM,21.2,3.2,46,30.42,10.0,Calm,Calm,-,N/A,,Clear,0,2012-11-28 02:55:00
8:15 PM,23.0,1.4,39,30.43,10.0,Calm,Calm,-,N/A,,Clear,0,2012-11-28 03:15:00
8:35 PM,21.2,1.4,42,30.43,10.0,Calm,Calm,-,N/A,,Clear,0,2012-11-28 03:35:00
9:15 PM,19.4,-0.4,42,30.44,10.0,Calm,Calm,-,N/A,,Clear,0,2012-11-28 04:15:00
9:55 PM,19.4,3.2,49,30.45,9.0,Calm,Calm,-,N/A,,Clear,0,2012-11-28 04:55:00
10:15 PM,19.4,1.4,46,30.45,8.0,Calm,Calm,-,N/A,,Clear,0,2012-11-28 05:15:00
10:55 PM,15.8,1.4,53,30.46,10.0,Calm,Calm,-,N/A,,Clear,0,2012-11-28 05:55:00
11:15 PM,14.0,-0.4,53,30.46,10.0,Calm,Calm,-,N/A,,Clear,0,2012-11-28 06:15:00
11:55 PM,15.8,3.2,58,30.47,10.0,Calm,Calm,-,N/A,,Clear,0,2012-11-28 06:55:00